| time (UTC) | temp C | wind direction | speed KPH | gust KPH | rain 1hr cm | rain 24hr cm | rain mn cm | humidity % | barometer mb |
| 20260510233745 | 27 | 277 | 1.6 | 17.7 | 0.00 | 0.00 | 0.00 | 42 | 1011.2 |
| 20260510233245 | 27 | 293 | 3.2 | 14.5 | 0.00 | 0.00 | 0.00 | 42 | 1011.2 |
| 20260510232246 | 27 | 306 | 4.8 | 16.1 | 0.00 | 0.00 | 0.00 | 42 | 1011.2 |
| 20260510231745 | 27 | 258 | 1.6 | 19.3 | 0.00 | 0.00 | 0.00 | 42 | 1011.2 |
| 20260510230745 | 28 | 296 | 1.6 | 17.7 | 0.00 | 0.00 | 0.00 | 42 | 1011.3 |
| 20260510230245 | 28 | 260 | 4.8 | 17.7 | 0.00 | 0.00 | 0.00 | 41 | 1011.4 |
| 20260510225745 | 27 | 272 | 0.0 | 16.1 | 0.00 | 0.00 | 0.00 | 42 | 1011.3 |
| 20260510225245 | 27 | 322 | 0.0 | 16.1 | 0.00 | 0.00 | 0.00 | 42 | 1011.4 |
| 20260510224745 | 27 | 309 | 6.4 | 17.7 | 0.00 | 0.00 | 0.00 | 42 | 1011.4 |
| 20260510224245 | 27 | 292 | 1.6 | 19.3 | 0.00 | 0.00 | 0.00 | 42 | 1011.4 |
| 20260510223245 | 27 | 326 | 1.6 | 19.3 | 0.00 | 0.00 | 0.00 | 42 | 1011.4 |
| 20260510222745 | 27 | 299 | 8.0 | 19.3 | 0.00 | 0.00 | 0.00 | 42 | 1011.4 |
| 20260510222244 | 27 | 281 | 3.2 | 20.9 | 0.00 | 0.00 | 0.00 | 43 | 1011.3 |
| 20260510221745 | 27 | 330 | 3.2 | 20.9 | 0.00 | 0.00 | 0.00 | 42 | 1011.4 |
| 20260510221245 | 27 | 306 | 4.8 | 19.3 | 0.00 | 0.00 | 0.00 | 42 | 1011.5 |
| 20260510220745 | 27 | 183 | 1.6 | 16.1 | 0.00 | 0.00 | 0.00 | 42 | 1011.5 |
| 20260510220245 | 27 | 292 | 16.1 | 16.1 | 0.00 | 0.00 | 0.00 | 42 | 1011.5 |
| 20260510215745 | 27 | 338 | 0.0 | 19.3 | 0.00 | 0.00 | 0.00 | 42 | 1011.6 |
| 20260510215244 | 27 | 229 | 4.8 | 19.3 | 0.00 | 0.00 | 0.00 | 42 | 1011.5 |
| 20260510214745 | 28 | 244 | 0.0 | 19.3 | 0.00 | 0.00 | 0.00 | 41 | 1011.6 |
| 20260510213245 | 28 | 290 | 4.8 | 19.3 | 0.00 | 0.00 | 0.00 | 41 | 1011.6 |
| 20260510212745 | 28 | 314 | 16.1 | 19.3 | 0.00 | 0.00 | 0.00 | 40 | 1011.6 |
| 20260510212245 | 28 | 325 | 0.0 | 17.7 | 0.00 | 0.00 | 0.00 | 40 | 1011.6 |
| 20260510211745 | 28 | 284 | 0.0 | 17.7 | 0.00 | 0.00 | 0.00 | 41 | 1011.6 |
| 20260510211244 | 27 | 306 | 1.6 | 16.1 | 0.00 | 0.00 | 0.00 | 41 | 1011.7 |
| 20260510210745 | 27 | 306 | 1.6 | 16.1 | 0.00 | 0.00 | 0.00 | 41 | 1011.7 |
| 20260510205745 | 27 | 300 | 8.0 | 17.7 | 0.00 | 0.00 | 0.00 | 40 | 1011.8 |
| 20260510205244 | 27 | 264 | 3.2 | 17.7 | 0.00 | 0.00 | 0.00 | 40 | 1011.9 |
| 20260510204244 | 27 | 267 | 6.4 | 17.7 | 0.00 | 0.00 | 0.00 | 40 | 1012.0 |
| 20260510203245 | 27 | 268 | 3.2 | 11.3 | 0.00 | 0.00 | 0.00 | 39 | 1012.0 |
| 20260510202744 | 27 | 298 | 4.8 | 11.3 | 0.00 | 0.00 | 0.00 | 39 | 1011.9 |
| 20260510202245 | 27 | 304 | 3.2 | 14.5 | 0.00 | 0.00 | 0.00 | 39 | 1011.9 |
| 20260510201746 | 27 | 232 | 6.4 | 14.5 | 0.00 | 0.00 | 0.00 | 39 | 1012.0 |
| 20260510201245 | 27 | 263 | 11.3 | 11.3 | 0.00 | 0.00 | 0.00 | 38 | 1012.1 |
| 20260510195745 | 27 | 217 | 4.8 | 11.3 | 0.00 | 0.00 | 0.00 | 38 | 1012.3 |
| 20260510195244 | 27 | 258 | 0.0 | 14.5 | 0.00 | 0.00 | 0.00 | 37 | 1012.4 |
| 20260510194744 | 27 | 311 | 6.4 | 14.5 | 0.00 | 0.00 | 0.00 | 37 | 1012.4 |
| 20260510193744 | 26 | 273 | 4.8 | 8.0 | 0.00 | 0.00 | 0.00 | 37 | 1012.4 |
| 20260510193244 | 26 | 277 | 3.2 | 9.7 | 0.00 | 0.00 | 0.00 | 36 | 1012.4 |
| 20260510192746 | 26 | 277 | 0.0 | 12.9 | 0.00 | 0.00 | 0.00 | 36 | 1012.4 |
| 20260510192244 | 26 | 221 | 0.0 | 12.9 | 0.00 | 0.00 | 0.00 | 36 | 1012.6 |
| 20260510191245 | 25 | 304 | 3.2 | 9.7 | 0.00 | 0.00 | 0.00 | 35 | 1012.6 |
| 20260510190245 | 25 | 302 | 4.8 | 14.5 | 0.00 | 0.00 | 0.00 | 33 | 1012.8 |
| 20260510185744 | 25 | 304 | 1.6 | 8.0 | 0.00 | 0.00 | 0.00 | 33 | 1012.9 |
| 20260510185245 | 24 | 319 | 0.0 | 8.0 | 0.00 | 0.00 | 0.00 | 33 | 1012.9 |
| 20260510184745 | 24 | 254 | 0.0 | 8.0 | 0.00 | 0.00 | 0.00 | 33 | 1012.9 |
| 20260510184245 | 23 | 256 | 1.6 | 8.0 | 0.00 | 0.00 | 0.00 | 32 | 1012.9 |
| 20260510183745 | 23 | 240 | 0.0 | 8.0 | 0.00 | 0.00 | 0.00 | 32 | 1012.9 |
| 20260510183245 | 23 | 217 | 4.8 | 9.7 | 0.00 | 0.00 | 0.00 | 31 | 1013.0 |
| 20260510182244 | 22 | 310 | 0.0 | 14.5 | 0.00 | 0.00 | 0.00 | 30 | 1012.9 |
| 20260510181745 | 22 | 296 | 0.0 | 14.5 | 0.00 | 0.00 | 0.00 | 29 | 1012.9 |
| 20260510180244 | 21 | 309 | 4.8 | 11.3 | 0.00 | 0.00 | 0.00 | 27 | 1012.9 |
| 20260510175744 | 20 | 309 | 0.0 | 14.5 | 0.00 | 0.00 | 0.00 | 27 | 1012.9 |
| 20260510175244 | 20 | 318 | 11.3 | 14.5 | 0.00 | 0.00 | 0.00 | 26 | 1013.0 |
| 20260510174744 | 20 | 287 | 0.0 | 11.3 | 0.00 | 0.00 | 0.00 | 25 | 1013.0 |
| 20260510174245 | 19 | 309 | 9.7 | 9.7 | 0.00 | 0.00 | 0.00 | 24 | 1012.9 |
| 20260510173744 | 18 | 302 | 0.0 | 11.3 | 0.00 | 0.00 | 0.00 | 23 | 1013.0 |
| 20260510172244 | 17 | 310 | 0.0 | 8.0 | 0.00 | 0.00 | 0.00 | 18 | 1012.9 |
| 20260510171744 | 17 | 311 | 0.0 | 4.8 | 0.00 | 0.00 | 0.00 | 15 | 1012.9 |
| 20260510170744 | 16 | 311 | 0.0 | 9.7 | 0.00 | 0.00 | 0.00 | 12 | 1012.8 |
| 20260510165744 | 15 | 248 | 0.0 | 9.7 | 0.00 | 0.00 | 0.00 | 11 | 1012.8 |
| 20260510165244 | 15 | 249 | 0.0 | 9.7 | 0.00 | 0.00 | 0.00 | 12 | 1012.8 |
| 20260510164244 | 13 | 242 | 0.0 | 3.2 | 0.00 | 0.00 | 0.00 | 13 | 1013.0 |
| 20260510163744 | 13 | 242 | 0.0 | 3.2 | 0.00 | 0.00 | 0.00 | 13 | 1012.8 |
| 20260510162744 | 12 | 242 | 0.0 | 4.8 | 0.00 | 0.00 | 0.00 | 14 | 1012.9 |
| 20260510162244 | 12 | 242 | 0.0 | 4.8 | 0.00 | 0.00 | 0.00 | 14 | 1013.0 |
| 20260510161745 | 12 | 242 | 0.0 | 4.8 | 0.00 | 0.00 | 0.00 | 14 | 1012.9 |
| 20260510160744 | 12 | 242 | 0.0 | 3.2 | 0.00 | 0.00 | 0.00 | 14 | 1012.9 |
| 20260510160244 | 12 | 242 | 0.0 | 3.2 | 0.00 | 0.00 | 0.00 | 14 | 1012.9 |
| 20260510155744 | 12 | 242 | 0.0 | 3.2 | 0.00 | 0.00 | 0.00 | 15 | 1012.9 |
| 20260510155244 | 12 | 246 | 0.0 | 3.2 | 0.00 | 0.00 | 0.00 | 15 | 1012.9 |
| 20260510154745 | 12 | 299 | 0.0 | 0.0 | 0.00 | 0.00 | 0.00 | 15 | 1012.9 |
| 20260510154244 | 12 | 298 | 0.0 | 0.0 | 0.00 | 0.00 | 0.00 | 15 | 1012.9 |
| 20260510152744 | 12 | 298 | 0.0 | 0.0 | 0.00 | 0.00 | 0.00 | 15 | 1012.8 |
| 20260510152244 | 12 | 298 | 0.0 | 0.0 | 0.00 | 0.00 | 0.00 | 15 | 1012.8 |
| 20260510151745 | 12 | 298 | 0.0 | 0.0 | 0.00 | 0.00 | 0.00 | 15 | 1012.8 |
| 20260510150244 | 11 | 298 | 0.0 | 0.0 | 0.00 | 0.00 | 0.00 | 15 | 1012.8 |
| 20260510145745 | 11 | 15 | 0.0 | 0.0 | 0.00 | 0.00 | 0.00 | 15 | 1012.7 |
| 20260510145244 | 11 | 15 | 0.0 | 0.0 | 0.00 | 0.00 | 0.00 | 15 | 1012.8 |
| 20260510144744 | 11 | 326 | 0.0 | 0.0 | 0.00 | 0.00 | 0.00 | 15 | 1012.8 |
| 20260510143244 | 11 | 326 | 0.0 | 0.0 | 0.00 | 0.00 | 0.00 | 15 | 1012.7 |
| 20260510142744 | 11 | 326 | 0.0 | 0.0 | 0.00 | 0.00 | 0.00 | 15 | 1012.7 |
| 20260510142244 | 11 | 326 | 0.0 | 0.0 | 0.00 | 0.00 | 0.00 | 15 | 1012.7 |
| 20260510141244 | 11 | 333 | 0.0 | 0.0 | 0.00 | 0.00 | 0.00 | 15 | 1012.7 |
| 20260510140244 | 11 | 331 | 0.0 | 0.0 | 0.00 | 0.00 | 0.00 | 15 | 1012.6 |
| 20260510135744 | 11 | 331 | 0.0 | 0.0 | 0.00 | 0.00 | 0.00 | 15 | 1012.7 |
| 20260510134744 | 11 | 332 | 0.0 | 0.0 | 0.00 | 0.00 | 0.00 | 15 | 1012.6 |
| 20260510134244 | 11 | 331 | 0.0 | 0.0 | 0.00 | 0.00 | 0.00 | 15 | 1012.5 |
| 20260510133744 | 11 | 332 | 0.0 | 0.0 | 0.00 | 0.00 | 0.00 | 14 | 1012.5 |
| 20260510133244 | 11 | 332 | 0.0 | 0.0 | 0.00 | 0.00 | 0.00 | 14 | 1012.4 |
| 20260510132744 | 11 | 332 | 0.0 | 0.0 | 0.00 | 0.00 | 0.00 | 14 | 1012.3 |
| 20260510132244 | 11 | 331 | 0.0 | 0.0 | 0.00 | 0.00 | 0.00 | 14 | 1012.2 |
| 20260510131244 | 11 | 332 | 0.0 | 0.0 | 0.00 | 0.00 | 0.00 | 14 | 1012.2 |
| 20260510130745 | 11 | 331 | 0.0 | 0.0 | 0.00 | 0.00 | 0.00 | 14 | 1012.1 |
| 20260510130244 | 11 | 332 | 0.0 | 0.0 | 0.00 | 0.00 | 0.00 | 14 | 1012.1 |
| 20260510125744 | 11 | 332 | 0.0 | 0.0 | 0.00 | 0.00 | 0.00 | 14 | 1012.2 |
| 20260510125244 | 11 | 332 | 0.0 | 0.0 | 0.00 | 0.00 | 0.00 | 14 | 1012.4 |
| 20260510124744 | 11 | 331 | 0.0 | 0.0 | 0.00 | 0.00 | 0.00 | 14 | 1012.4 |
| 20260510124244 | 11 | 331 | 0.0 | 0.0 | 0.00 | 0.00 | 0.00 | 14 | 1012.3 |
| 20260510123744 | 11 | 332 | 0.0 | 0.0 | 0.00 | 0.00 | 0.00 | 14 | 1012.3 |
| 20260510123244 | 11 | 332 | 0.0 | 0.0 | 0.00 | 0.00 | 0.00 | 14 | 1012.3 |
| 20260510122744 | 11 | 332 | 0.0 | 0.0 | 0.00 | 0.00 | 0.00 | 14 | 1012.2 |
| 20260510122243 | 11 | 332 | 0.0 | 0.0 | 0.00 | 0.00 | 0.00 | 14 | 1012.2 |
| 20260510121744 | 11 | 332 | 0.0 | 0.0 | 0.00 | 0.00 | 0.00 | 14 | 1012.2 |
| 20260510121244 | 11 | 331 | 0.0 | 0.0 | 0.00 | 0.00 | 0.00 | 13 | 1012.2 |
| 20260510120744 | 11 | 331 | 0.0 | 0.0 | 0.00 | 0.00 | 0.00 | 13 | 1012.2 |
| 20260510115743 | 12 | 332 | 0.0 | 0.0 | 0.00 | 0.00 | 0.00 | 13 | 1012.3 |
| 20260510115244 | 12 | 331 | 0.0 | 0.0 | 0.00 | 0.00 | 0.00 | 13 | 1012.3 |
| 20260510114744 | 11 | 332 | 0.0 | 0.0 | 0.00 | 0.00 | 0.00 | 13 | 1012.2 |
| 20260510114244 | 11 | 332 | 0.0 | 0.0 | 0.00 | 0.00 | 0.00 | 13 | 1012.2 |
| 20260510113744 | 11 | 332 | 0.0 | 0.0 | 0.00 | 0.00 | 0.00 | 13 | 1012.2 |
| 20260510113244 | 12 | 331 | 0.0 | 0.0 | 0.00 | 0.00 | 0.00 | 13 | 1012.2 |
| 20260510112743 | 12 | 332 | 0.0 | 0.0 | 0.00 | 0.00 | 0.00 | 13 | 1012.2 |
| 20260510111744 | 12 | 332 | 0.0 | 0.0 | 0.00 | 0.00 | 0.00 | 13 | 1012.3 |
| 20260510111243 | 12 | 331 | 0.0 | 0.0 | 0.00 | 0.00 | 0.00 | 13 | 1012.3 |
| 20260510110744 | 12 | 331 | 0.0 | 0.0 | 0.00 | 0.00 | 0.00 | 13 | 1012.3 |
| 20260510110243 | 12 | 332 | 0.0 | 0.0 | 0.00 | 0.00 | 0.00 | 13 | 1012.3 |
| 20260510105743 | 12 | 331 | 0.0 | 0.0 | 0.00 | 0.00 | 0.00 | 13 | 1012.3 |
| 20260510105243 | 12 | 332 | 0.0 | 0.0 | 0.00 | 0.00 | 0.00 | 13 | 1012.3 |
| 20260510104743 | 12 | 332 | 0.0 | 0.0 | 0.00 | 0.00 | 0.00 | 13 | 1012.3 |
| 20260510104244 | 12 | 332 | 0.0 | 0.0 | 0.00 | 0.00 | 0.00 | 13 | 1012.3 |
| 20260510103243 | 12 | 331 | 0.0 | 0.0 | 0.00 | 0.00 | 0.00 | 13 | 1012.1 |
| 20260510102743 | 12 | 332 | 0.0 | 0.0 | 0.00 | 0.00 | 0.00 | 13 | 1012.1 |
| 20260510101743 | 12 | 332 | 0.0 | 0.0 | 0.00 | 0.00 | 0.00 | 13 | 1012.2 |
| 20260510101244 | 12 | 332 | 0.0 | 0.0 | 0.00 | 0.00 | 0.00 | 13 | 1012.2 |
| 20260510100744 | 12 | 332 | 0.0 | 0.0 | 0.00 | 0.00 | 0.00 | 13 | 1012.2 |
| 20260510100244 | 12 | 332 | 0.0 | 0.0 | 0.00 | 0.00 | 0.00 | 13 | 1012.2 |
| 20260510095243 | 12 | 332 | 0.0 | 0.0 | 0.00 | 0.00 | 0.00 | 13 | 1012.5 |
| 20260510094744 | 12 | 332 | 0.0 | 0.0 | 0.00 | 0.00 | 0.00 | 13 | 1012.5 |
| 20260510094243 | 12 | 331 | 0.0 | 0.0 | 0.00 | 0.00 | 0.00 | 13 | 1012.5 |
| 20260510093744 | 12 | 332 | 0.0 | 0.0 | 0.00 | 0.00 | 0.00 | 13 | 1012.6 |
| 20260510093244 | 12 | 332 | 0.0 | 0.0 | 0.00 | 0.00 | 0.00 | 13 | 1012.6 |
| 20260510092743 | 12 | 332 | 0.0 | 0.0 | 0.00 | 0.00 | 0.00 | 13 | 1012.6 |
| 20260510092244 | 12 | 331 | 0.0 | 0.0 | 0.00 | 0.00 | 0.00 | 13 | 1012.6 |
| 20260510091743 | 12 | 331 | 0.0 | 0.0 | 0.00 | 0.00 | 0.00 | 13 | 1012.7 |
| 20260510091244 | 12 | 332 | 0.0 | 0.0 | 0.00 | 0.00 | 0.00 | 13 | 1012.7 |
| 20260510090743 | 12 | 332 | 0.0 | 0.0 | 0.00 | 0.00 | 0.00 | 13 | 1012.7 |
| 20260510090244 | 12 | 332 | 0.0 | 0.0 | 0.00 | 0.00 | 0.00 | 13 | 1012.7 |
| 20260510085743 | 12 | 332 | 0.0 | 0.0 | 0.00 | 0.00 | 0.00 | 13 | 1012.7 |
| 20260510085244 | 12 | 332 | 0.0 | 0.0 | 0.00 | 0.00 | 0.00 | 13 | 1012.6 |
| 20260510084743 | 12 | 331 | 0.0 | 0.0 | 0.00 | 0.00 | 0.00 | 13 | 1012.7 |
| 20260510084244 | 12 | 331 | 0.0 | 0.0 | 0.00 | 0.00 | 0.00 | 13 | 1012.8 |
| 20260510082744 | 12 | 331 | 0.0 | 0.0 | 0.00 | 0.00 | 0.00 | 13 | 1012.8 |
| 20260510082243 | 12 | 332 | 0.0 | 0.0 | 0.00 | 0.00 | 0.00 | 13 | 1012.8 |
| 20260510081243 | 12 | 332 | 0.0 | 0.0 | 0.00 | 0.00 | 0.00 | 13 | 1012.9 |
| 20260510080744 | 12 | 331 | 0.0 | 0.0 | 0.00 | 0.00 | 0.00 | 13 | 1012.9 |
| 20260510075743 | 12 | 332 | 0.0 | 0.0 | 0.00 | 0.00 | 0.00 | 13 | 1013.0 |
| 20260510074743 | 12 | 331 | 0.0 | 0.0 | 0.00 | 0.00 | 0.00 | 13 | 1013.0 |
| 20260510074243 | 12 | 332 | 0.0 | 0.0 | 0.00 | 0.00 | 0.00 | 13 | 1013.1 |
| 20260510073743 | 12 | 332 | 0.0 | 0.0 | 0.00 | 0.00 | 0.00 | 13 | 1013.1 |
| 20260510072743 | 12 | 332 | 0.0 | 0.0 | 0.00 | 0.00 | 0.00 | 13 | 1013.2 |
| 20260510072244 | 12 | 332 | 0.0 | 0.0 | 0.00 | 0.00 | 0.00 | 13 | 1013.1 |
| 20260510071243 | 12 | 331 | 0.0 | 0.0 | 0.00 | 0.00 | 0.00 | 13 | 1013.0 |
| 20260510070244 | 12 | 332 | 0.0 | 0.0 | 0.00 | 0.00 | 0.00 | 13 | 1013.2 |
| 20260510065743 | 12 | 332 | 0.0 | 1.6 | 0.00 | 0.00 | 0.00 | 13 | 1013.0 |
| 20260510065243 | 12 | 331 | 0.0 | 1.6 | 0.00 | 0.00 | 0.00 | 12 | 1013.0 |
| 20260510064743 | 12 | 332 | 0.0 | 0.0 | 0.00 | 0.00 | 0.00 | 12 | 1013.0 |
| 20260510064244 | 12 | 332 | 0.0 | 3.2 | 0.00 | 0.00 | 0.00 | 12 | 1013.0 |
| 20260510063743 | 12 | 332 | 0.0 | 4.8 | 0.00 | 0.00 | 0.00 | 12 | 1013.0 |
| 20260510063244 | 12 | 331 | 0.0 | 4.8 | 0.00 | 0.00 | 0.00 | 12 | 1012.9 |
| 20260510062743 | 12 | 332 | 3.2 | 3.2 | 0.00 | 0.00 | 0.00 | 12 | 1012.9 |
| 20260510061744 | 12 | 332 | 0.0 | 0.0 | 0.00 | 0.00 | 0.00 | 12 | 1013.0 |
| 20260510061243 | 12 | 331 | 0.0 | 0.0 | 0.00 | 0.00 | 0.00 | 12 | 1012.9 |
| 20260510060243 | 12 | 332 | 0.0 | 0.0 | 0.00 | 0.00 | 0.00 | 12 | 1012.9 |
| 20260510055744 | 12 | 331 | 0.0 | 0.0 | 0.00 | 0.00 | 0.00 | 12 | 1012.9 |
| 20260510055243 | 12 | 331 | 0.0 | 0.0 | 0.00 | 0.00 | 0.00 | 12 | 1012.9 |
| 20260510054743 | 12 | 332 | 0.0 | 0.0 | 0.00 | 0.00 | 0.00 | 12 | 1012.9 |
| 20260510054243 | 12 | 332 | 0.0 | 0.0 | 0.00 | 0.00 | 0.00 | 12 | 1012.9 |
| 20260510053743 | 12 | 331 | 0.0 | 0.0 | 0.00 | 0.00 | 0.00 | 12 | 1012.9 |
| 20260510053243 | 12 | 332 | 0.0 | 0.0 | 0.00 | 0.00 | 0.00 | 13 | 1012.9 |
| 20260510052744 | 12 | 332 | 0.0 | 0.0 | 0.00 | 0.00 | 0.00 | 13 | 1012.9 |
| 20260510052243 | 12 | 331 | 0.0 | 0.0 | 0.00 | 0.00 | 0.00 | 13 | 1013.0 |
| 20260510051743 | 12 | 331 | 0.0 | 0.0 | 0.00 | 0.00 | 0.00 | 13 | 1012.9 |
| 20260510051243 | 12 | 332 | 0.0 | 0.0 | 0.00 | 0.00 | 0.00 | 13 | 1012.8 |
| 20260510050743 | 12 | 332 | 0.0 | 0.0 | 0.00 | 0.00 | 0.00 | 13 | 1012.8 |
| 20260510050243 | 12 | 332 | 0.0 | 0.0 | 0.00 | 0.00 | 0.00 | 13 | 1013.0 |
| 20260510045743 | 12 | 332 | 0.0 | 0.0 | 0.00 | 0.00 | 0.00 | 13 | 1012.7 |
| 20260510045243 | 12 | 332 | 0.0 | 0.0 | 0.00 | 0.00 | 0.00 | 13 | 1012.6 |
| 20260510044243 | 12 | 331 | 0.0 | 0.0 | 0.00 | 0.00 | 0.00 | 13 | 1012.5 |
| 20260510043243 | 12 | 332 | 0.0 | 4.8 | 0.00 | 0.00 | 0.00 | 13 | 1012.5 |
| 20260510042243 | 12 | 331 | 0.0 | 6.4 | 0.00 | 0.00 | 0.00 | 14 | 1012.5 |
| 20260510041243 | 13 | 332 | 3.2 | 9.7 | 0.00 | 0.00 | 0.00 | 14 | 1012.6 |
| 20260510040743 | 13 | 331 | 0.0 | 0.0 | 0.00 | 0.00 | 0.00 | 14 | 1012.4 |
| 20260510040243 | 13 | 332 | 0.0 | 4.8 | 0.00 | 0.00 | 0.00 | 14 | 1012.4 |
| 20260510035743 | 13 | 332 | 0.0 | 8.0 | 0.00 | 0.00 | 0.00 | 15 | 1012.1 |
| 20260510035243 | 13 | 332 | 0.0 | 9.7 | 0.00 | 0.00 | 0.00 | 15 | 1012.0 |
| 20260510034743 | 13 | 331 | 0.0 | 9.7 | 0.00 | 0.00 | 0.00 | 15 | 1012.0 |
| 20260510033743 | 13 | 333 | 8.0 | 8.0 | 0.00 | 0.00 | 0.00 | 17 | 1011.9 |
| 20260510033243 | 13 | 333 | 0.0 | 9.7 | 0.00 | 0.00 | 0.00 | 17 | 1011.8 |
| 20260510032743 | 13 | 334 | 0.0 | 9.7 | 0.00 | 0.00 | 0.00 | 18 | 1011.7 |
| 20260510031743 | 13 | 267 | 3.2 | 11.3 | 0.00 | 0.00 | 0.00 | 20 | 1011.5 |
| 20260510031243 | 13 | 304 | 1.6 | 8.0 | 0.00 | 0.00 | 0.00 | 22 | 1011.5 |
| 20260510030743 | 13 | 304 | 0.0 | 6.4 | 0.00 | 0.00 | 0.00 | 22 | 1011.6 |
| 20260510030243 | 13 | 305 | 0.0 | 6.4 | 0.00 | 0.00 | 0.00 | 24 | 1011.5 |
| 20260510025743 | 13 | 294 | 0.0 | 11.3 | 0.00 | 0.00 | 0.00 | 24 | 1011.4 |
| 20260510025243 | 14 | 292 | 1.6 | 11.3 | 0.00 | 0.00 | 0.00 | 25 | 1011.3 |
| 20260510024743 | 14 | 269 | 0.0 | 9.7 | 0.00 | 0.00 | 0.00 | 26 | 1011.2 |
| 20260510024244 | 14 | 261 | 1.6 | 11.3 | 0.00 | 0.00 | 0.00 | 27 | 1011.3 |
| 20260510023743 | 15 | 319 | 3.2 | 11.3 | 0.00 | 0.00 | 0.00 | 28 | 1011.2 |
| 20260510023243 | 15 | 287 | 4.8 | 8.0 | 0.00 | 0.00 | 0.00 | 29 | 1011.2 |
| 20260510022743 | 15 | 236 | 0.0 | 8.0 | 0.00 | 0.00 | 0.00 | 30 | 1011.2 |
| 20260510022243 | 15 | 288 | 3.2 | 11.3 | 0.00 | 0.00 | 0.00 | 31 | 1011.2 |
| 20260510021743 | 15 | 288 | 0.0 | 14.5 | 0.00 | 0.00 | 0.00 | 33 | 1011.1 |
| 20260510021243 | 15 | 257 | 0.0 | 14.5 | 0.00 | 0.00 | 0.00 | 35 | 1011.1 |
| 20260510020744 | 16 | 255 | 4.8 | 19.3 | 0.00 | 0.00 | 0.00 | 37 | 1011.0 |
| 20260510015743 | 16 | 248 | 8.0 | 17.7 | 0.00 | 0.00 | 0.00 | 41 | 1011.0 |
| 20260510015243 | 17 | 281 | 8.0 | 16.1 | 0.00 | 0.00 | 0.00 | 43 | 1011.1 |
| 20260510013243 | 18 | 306 | 4.8 | 14.5 | 0.00 | 0.00 | 0.00 | 46 | 1010.9 |
| 20260510012743 | 19 | 281 | 9.7 | 19.3 | 0.00 | 0.00 | 0.00 | 47 | 1011.0 |
| 20260510012243 | 19 | 308 | 1.6 | 19.3 | 0.00 | 0.00 | 0.00 | 47 | 1011.0 |
| 20260510011744 | 20 | 281 | 19.3 | 19.3 | 0.00 | 0.00 | 0.00 | 47 | 1011.1 |
| 20260510011243 | 20 | 221 | 3.2 | 17.7 | 0.00 | 0.00 | 0.00 | 47 | 1011.0 |
| 20260510010244 | 20 | 250 | 3.2 | 17.7 | 0.00 | 0.00 | 0.00 | 47 | 1011.1 |
| 20260510005743 | 20 | 330 | 1.6 | 17.7 | 0.00 | 0.00 | 0.00 | 47 | 1011.1 |
| 20260510005243 | 21 | 242 | 3.2 | 19.3 | 0.00 | 0.00 | 0.00 | 47 | 1011.1 |
| 20260510004742 | 21 | 306 | 11.3 | 19.3 | 0.00 | 0.00 | 0.00 | 47 | 1011.1 |
| 20260510003743 | 21 | 261 | 0.0 | 16.1 | 0.00 | 0.00 | 0.00 | 47 | 1011.0 |
| 20260510003243 | 22 | 291 | 8.0 | 19.3 | 0.00 | 0.00 | 0.00 | 47 | 1011.1 |
| 20260510002743 | 22 | 285 | 3.2 | 19.3 | 0.00 | 0.00 | 0.00 | 46 | 1011.0 |
| 20260510002243 | 22 | 284 | 4.8 | 16.1 | 0.00 | 0.00 | 0.00 | 46 | 1011.0 |
| 20260510001244 | 22 | 304 | 0.0 | 16.1 | 0.00 | 0.00 | 0.00 | 46 | 1010.9 |
| 20260510000243 | 22 | 314 | 3.2 | 17.7 | 0.00 | 0.00 | 0.00 | 45 | 1010.9 |
| 20260509235743 | 23 | 286 | 6.4 | 14.5 | 0.00 | 0.00 | 0.00 | 45 | 1011.0 |
| 20260509235243 | 23 | 312 | 4.8 | 14.5 | 0.00 | 0.00 | 0.00 | 45 | 1011.0 |
| 20260509234743 | 23 | 268 | 1.6 | 16.1 | 0.00 | 0.00 | 0.00 | 45 | 1011.1 |